Retour au catalogue

SL-8 R/B

ActifPO
NORAD 8421·ROCKET BODY·🇷🇺 Russia

Lancé Nov 4, 1975 depuis Plesetsk Cosmodrome

Loading…

Prochains Passages (prochaines 24 heures)

TLE

FraisSource: Space-Track

Époque: Sep 14, 2026, 04:36 UTC

1 08421U 75103B   26257.19197118  .00000079  00000-0  64252-4 0  9999
2 08421  82.9772 180.1354 0023820 141.9482  22.8058 13.77105019553369

Suivez SL-8 R/B en temps réel avec AllMySat

Download on the App Store